User: anonymous   Login
Location: Rounton
(54.4000°N, 1.3500°W)
Time: 01:47:31
(UTC+01:00)
Language:

FENGYUN 1C DEB - Orbit

View from above orbital plane
View from above orbital plane
View from above satellite
View from above satellite

Ground track
Ground track

The orbit data is extracted from the following two-line orbital elements,

1 32123U 99025CRR 22180.94483764  .00000412  00000-0  89288-4 0  9990
2 32123  98.8912 246.3434 0176347 179.9319 355.1369 14.55119356529898
Epoch (UTC): 29 June 2022 22:40:33
Eccentricity: 0.0176347
inclination: 98.8912°
perigee height: 584 km
apogee height: 834 km
right ascension of ascending node: 246.3434°
argument of perigee: 179.9319°
revolutions per day: 14.55119356
mean anomaly at epoch: 355.1369°
orbit number at epoch: 52989

The dashed part of the orbit path shows where the satellite is in the earth's shadow,  

DLR